Wind_Speed
20 22 21 20 16 12 13 15 15 13 10 8 7 7 5 7 9 6 8 11 12 12 11 10 10 9 10 13 16 19 21 26 32 32 32 34 35 34 33 31 31 28 25 24 23 21 20 18 18 16 13 11 13 16 17 19 22 25 30 34 35 33 31
23 23 21 23 20 11 11 14 16 16 13 9 9 7 5 7 8 4 7 11 11 8 6 5 6 7 7 9 13 16 18 21 28 33 34 34 34 35 34 31 31 29 27 25 23 22 20 19 19 17 15 14 15 16 18 19 22 25 29 34 35 34 32
22 23 19 20 22 18 14 12 13 16 13 10 11 8 5 6 7 4 6 9 10 10 7 3 4 6 7 8 10 14 17 17 21 28 35 35 33 35 35 32 31 30 28 26 23 22 21 20 20 20 17 16 16 17 18 19 21 24 29 33 35 34 32
21 22 21 18 19 21 20 13 13 16 12 8 10 8 8 6 6 6 4 5 8 9 7 4 4 5 6 7 7 10 14 16 16 21 30 35 33 32 34 33 31 29 29 28 25 23 23 22 21 21 20 18 18 19 19 20 21 24 29 32 34 35 33
21 20 21 21 17 19 22 18 15 17 14 10 9 8 9 8 7 6 3 6 7 3 3 5 5 5 6 7 6 6 11 14 16 17 23 30 32 29 30 31 31 30 30 29 27 26 26 24 23 23 22 20 20 20 20 20 21 24 28 31 34 34 33
19 19 21 22 19 18 21 20 19 18 16 13 10 9 9 8 8 6 5 8 8 4 5 8 6 5 7 7 7 5 7 11 14 15 17 22 27 27 27 28 30 31 31 31 29 29 28 26 26 25 24 22 22 22 21 21 22 25 28 31 33 34 33
15 17 19 22 22 22 22 20 19 18 17 16 14 9 7 8 8 8 8 9 9 8 8 7 6 7 8 9 9 6 6 8 11 14 16 17 21 23 24 26 29 31 31 32 31 30 30 28 27 27 25 24 24 23 21 22 23 25 28 31 33 35 33
14 16 18 22 24 25 24 21 20 19 17 18 16 10 6 7 9 8 8 9 8 7 6 8 11 9 7 9 9 7 6 7 9 12 15 17 19 23 24 25 28 30 32 33 32 31 31 30 29 28 26 26 25 23 22 22 23 25 27 29 33 34 33
12 13 14 20 24 25 24 21 21 22 18 16 15 11 8 11 13 11 9 10 8 4 7 13 15 9 7 10 8 6 7 8 9 11 14 16 18 23 26 26 26 28 30 31 30 31 32 32 30 29 28 26 25 24 22 22 24 26 27 29 32 34 32
12 12 14 17 20 22 23 21 21 24 22 20 18 14 11 13 13 13 13 14 11 8 9 12 10 7 7 10 10 10 9 9 11 13 15 17 18 20 24 26 27 27 28 29 29 32 34 33 31 30 28 27 26 24 22 23 24 26 27 29 32 33 31
17 16 16 18 19 20 23 24 25 27 25 23 21 17 15 13 12 14 18 19 18 15 11 10 9 9 10 11 13 14 13 13 14 15 17 20 21 21 23 26 28 29 29 29 30 33 34 33 31 29 27 27 26 24 23 23 24 25 27 30 32 31 29
22 18 15 16 19 21 22 23 25 26 25 24 22 20 18 15 14 15 15 16 18 20 18 14 13 13 13 13 15 16 18 18 17 18 19 21 24 25 26 27 29 29 29 29 32 34 34 32 31 28 27 27 25 24 23 24 24 25 27 30 31 29 26
24 23 21 19 18 18 20 21 21 23 25 25 25 23 19 18 18 17 13 12 16 20 20 18 16 16 17 18 18 20 22 22 22 22 22 23 25 27 28 28 28 29 30 31 33 34 33 31 30 28 27 26 25 24 24 24 24 25 28 30 29 27 24
21 25 25 22 18 16 18 19 19 21 23 23 23 21 18 18 20 18 15 17 21 23 24 23 22 21 22 23 22 21 21 23 24 24 24 24 26 28 29 29 29 29 30 31 31 32 31 30 28 27 26 25 24 23 23 23 23 25 28 28 27 26 23
17 22 23 20 17 15 16 17 17 18 18 19 19 17 17 19 19 18 17 19 22 22 20 20 23 24 25 25 23 20 18 21 24 25 26 26 26 27 29 31 30 29 30 30 30 30 29 28 27 26 25 24 23 22 21 22 23 26 27 27 26 25 22
14 16 17 16 15 14 15 16 17 18 18 17 16 16 17 19 16 15 16 17 18 15 13 17 23 25 24 23 22 21 20 21 23 25 26 26 26 26 28 30 31 30 29 29 28 28 27 26 25 24 24 22 20 19 21 22 24 25 25 25 25 24 21
13 14 14 14 14 14 15 17 18 17 17 16 15 15 16 16 14 13 14 15 14 14 15 19 21 20 18 19 21 22 22 22 23 24 24 24 24 24 25 28 30 30 29 28 26 25 24 23 23 23 22 19 17 19 21 22 23 24 23 24 25 23 21
11 12 14 13 13 13 13 14 17 17 16 16 15 15 15 14 13 13 14 14 14 15 16 16 16 16 15 17 18 19 20 21 22 22 22 23 23 24 25 25 27 29 29 27 24 22 21 21 22 22 19 17 17 19 21 21 22 22 23 25 24 22 21
12 11 14 13 12 12 11 12 16 17 16 15 15 14 14 13 13 13 13 14 14 15 14 14 15 14 13 13 14 14 16 17 18 19 21 22 23 24 24 24 26 29 29 25 22 21 21 22 23 20 17 17 19 20 20 21 21 22 23 24 23 22 21
12 14 16 13 8 8 10 12 14 14 13 12 12 13 13 13 13 12 13 13 13 13 12 13 13 11 10 11 12 12 13 14 14 16 18 20 22 23 24 25 27 28 26 23 20 20 22 23 22 17 17 19 19 19 20 20 21 22 23 23 21 20 20
14 17 19 15 9 7 10 10 9 10 10 9 10 12 13 12 11 11 12 12 11 10 11 10 9 8 9 11 11 11 11 12 11 12 13 15 18 20 23 23 22 21 21 20 20 21 23 22 18 17 19 19 17 18 21 22 21 22 22 21 19 19 20
17 19 19 16 13 14 15 14 11 9 8 8 8 10 12 12 12 11 10 9 8 9 9 9 7 7 8 10 10 10 9 9 8 8 9 11 12 16 21 21 19 19 19 20 21 23 22 19 17 19 20 18 17 20 22 22 21 21 20 20 19 20 22
17 19 19 16 15 16 15 13 12 10 9 7 8 11 13 12 11 10 7 7 8 9 9 9 6 6 8 9 9 10 9 7 6 7 7 8 9 12 16 17 17 17 18 21 22 21 19 17 19 20 19 18 21 23 22 21 21 21 20 19 20 23 24
19 19 21 20 18 14 9 10 13 13 12 8 8 11 11 7 6 7 6 7 9 9 10 10 8 7 9 9 9 10 9 6 6 8 8 8 8 9 12 14 14 15 17 19 18 17 17 19 20 20 20 22 24 24 22 21 21 22 21 21 23 26 26
22 20 21 22 18 12 9 10 13 13 12 11 12 14 12 8 6 7 7 8 10 11 13 12 10 10 12 12 11 11 9 7 8 10 9 8 6 7 10 11 12 13 14 14 14 16 18 19 19 21 22 24 24 22 21 22 23 23 23 25 27 29 28
23 21 20 21 18 13 12 12 14 16 15 14 14 14 12 11 9 8 9 11 12 14 15 13 12 12 12 11 11 12 11 8 9 10 9 8 7 8 9 9 9 10 11 13 15 17 18 18 20 22 23 22 21 20 22 24 25 26 27 29 32 33 31
19 18 18 16 12 11 14 14 14 16 18 17 15 13 11 12 12 12 15 16 15 16 16 15 14 15 13 10 11 13 12 10 10 10 9 9 9 9 8 8 9 10 12 14 16 17 17 19 21 22 21 21 21 23 24 25 26 29 30 32 35 36 34
16 17 15 12 9 9 13 14 11 11 14 16 17 17 17 19 20 21 21 19 18 18 17 16 17 17 14 12 12 13 13 12 11 11 11 11 10 9 9 10 11 12 14 15 16 17 19 22 22 21 22 23 24 26 26 24 26 31 33 35 37 37 35
15 15 10 10 12 12 12 14 14 14 15 17 19 20 22 22 22 22 21 20 21 21 18 17 18 19 17 15 14 15 15 13 12 11 11 11 10 10 11 12 13 14 15 15 17 19 21 23 23 23 25 25 26 27 28 27 29 32 34 36 37 36 34
14 14 11 13 15 15 14 17 19 20 20 21 22 22 23 22 21 19 20 21 22 22 21 19 20 21 21 19 16 16 15 13 12 12 11 10 10 11 12 12 13 15 16 16 18 20 22 24 24 25 27 27 28 29 30 31 32 33 35 37 36 34 33
17 16 17 20 21 19 19 20 20 21 21 22 22 22 23 23 21 19 20 21 21 21 20 19 20 23 24 21 17 16 15 13 13 12 11 11 12 12 13 13 14 15 16 17 19 22 24 26 27 28 30 30 30 31 32 33 33 34 35 34 33 33 33
18 15 19 24 23 19 19 19 19 21 22 21 22 22 22 22 21 19 20 19 18 18 18 18 20 22 23 21 17 15 14 13 12 12 11 12 12 12 13 13 14 15 16 18 20 23 26 28 28 30 31 32 33 32 32 32 34 34 33 32 32 34 35
15 16 22 24 18 14 17 21 22 23 22 21 21 22 21 21 19 17 16 15 15 16 17 18 20 21 22 20 17 15 15 13 12 12 12 12 12 13 13 14 15 16 17 19 21 24 26 29 30 32 33 33 33 31 30 31 33 33 32 32 34 35 35
12 15 21 23 18 16 18 20 21 22 22 22 22 21 21 20 17 13 12 13 14 15 16 17 19 20 21 19 16 15 15 14 13 13 13 12 13 15 15 16 16 17 19 21 23 25 27 29 31 33 33 32 31 30 29 29 31 31 32 32 33 34 35
15 17 21 23 21 20 20 20 20 21 20 20 20 19 19 20 16 12 11 12 14 14 16 18 19 19 19 18 16 15 16 16 16 15 14 15 16 17 17 17 18 19 21 23 25 26 28 29 30 31 31 31 30 29 28 28 29 31 32 32 32 34 35
22 24 25 25 22 21 21 21 23 24 22 20 19 18 18 19 17 13 13 15 17 17 17 19 20 19 18 18 18 18 18 18 16 16 16 16 17 18 19 20 21 23 24 26 27 27 28 28 28 28 28 27 27 27 27 28 30 31 31 32 33 34 35
27 28 28 28 25 22 21 21 23 25 24 22 21 19 18 19 19 17 16 17 18 19 19 19 19 18 17 17 17 16 16 16 15 15 16 17 19 20 22 23 25 26 26 26 26 26 26 26 26 26 26 25 25 25 26 28 29 30 31 31 32 32 34
Wind_Direction
190 196 195 192 195 193 195 204 211 221 226 217 237 265 256 264 275 240 210 239 249 255 262 250 243 250 252 250 242 236 232 224 221 217 210 214 220 222 221 220 218 216 217 222 222 219 221 232 243 248 256 270 285 298 309 319 330 340 346 347 347 343 338
193 200 201 202 207 198 195 210 214 215 216 217 236 251 221 230 261 237 213 248 255 246 237 199 217 254 267 264 248 235 233 228 224 221 215 213 216 218 220 221 219 217 218 223 225 224 226 238 247 250 258 269 281 294 304 315 327 338 344 346 347 345 339
200 202 205 208 211 209 208 213 211 210 214 211 212 234 260 253 270 266 220 239 251 244 239 214 237 264 273 271 255 235 232 234 232 226 221 219 217 215 216 219 219 219 220 224 228 229 231 239 248 252 259 267 277 289 300 310 322 334 341 344 346 345 340
206 201 204 206 208 210 211 212 206 207 221 223 202 224 270 275 282 286 238 225 245 233 219 236 263 277 277 263 258 243 234 235 236 231 226 224 220 215 213 215 218 220 221 225 230 233 235 241 248 254 258 264 274 284 295 306 318 330 337 341 345 344 339
206 200 203 209 208 204 205 208 206 203 211 226 223 229 249 262 282 291 262 263 275 228 213 276 279 276 278 258 246 241 235 236 236 232 230 229 225 219 214 214 217 219 222 225 231 235 237 241 246 252 257 262 272 281 292 303 314 325 333 338 342 342 339
206 205 205 212 212 205 205 210 213 211 208 215 232 227 213 229 260 276 279 283 292 285 287 304 294 268 270 250 233 229 231 237 236 231 228 228 229 227 221 219 219 220 222 226 230 235 240 243 245 251 257 261 269 278 289 300 310 321 330 335 339 340 337
207 207 208 213 211 204 207 215 220 222 218 220 238 242 199 204 240 257 269 279 283 273 279 307 309 288 274 243 227 228 237 241 238 233 225 219 223 227 227 226 223 222 223 226 230 237 242 245 246 250 255 259 267 276 286 297 307 319 326 331 335 337 335
206 211 215 219 217 210 209 218 223 227 228 228 240 252 226 222 238 241 253 268 272 260 268 306 317 309 272 233 224 233 248 245 236 235 233 225 219 220 222 225 225 224 224 227 232 238 243 245 245 249 254 258 266 275 284 295 305 314 321 326 330 333 331
200 209 215 216 217 217 219 223 225 226 229 228 236 244 235 242 248 245 257 274 277 285 299 305 311 308 251 224 229 247 244 234 229 233 238 237 229 224 221 222 224 225 226 230 234 238 242 243 244 248 253 259 265 273 283 294 302 309 316 321 326 329 328
206 208 214 213 212 217 223 226 224 224 224 223 228 233 230 239 245 238 246 266 282 303 311 308 310 298 249 236 249 262 251 238 241 241 238 234 231 229 228 226 225 226 229 232 235 237 240 242 243 247 253 258 264 272 281 290 298 304 312 319 324 325 324
223 224 223 218 217 219 219 220 222 223 222 221 225 233 235 237 240 239 245 258 274 285 290 297 295 278 264 259 262 265 257 245 246 249 244 235 227 224 226 227 226 226 229 233 234 236 239 241 243 247 253 257 263 272 280 287 294 300 309 318 322 323 322
230 236 235 224 223 227 224 223 223 221 219 217 220 229 237 240 245 251 252 252 262 273 280 289 289 277 272 271 267 263 253 244 245 249 247 241 233 225 222 223 224 226 229 231 233 235 238 239 242 247 251 255 263 272 279 285 290 298 309 316 319 320 320
231 235 238 237 233 232 232 231 225 220 218 218 221 227 234 243 250 258 268 262 261 273 282 286 285 279 275 274 272 266 257 252 252 251 247 242 237 232 227 223 223 225 228 231 233 236 237 239 243 247 250 256 264 271 278 284 289 298 309 314 317 319 317
231 234 237 238 235 230 232 231 223 217 217 218 222 227 233 242 249 255 267 271 269 274 282 286 284 281 281 282 281 273 261 256 254 251 247 245 240 237 234 229 226 226 228 231 235 237 238 240 244 247 251 257 265 271 277 282 290 301 310 312 315 318 315
229 234 235 233 228 223 223 220 212 209 209 211 218 227 233 240 248 256 263 269 274 278 284 287 285 285 287 287 285 278 264 252 249 248 248 248 245 241 237 233 231 230 229 231 236 238 238 241 244 246 252 259 264 270 277 285 295 305 309 310 315 317 312
223 228 226 217 211 212 211 205 200 200 203 210 219 226 235 240 248 260 264 267 275 279 274 275 283 290 292 288 282 276 263 249 245 247 247 246 245 245 242 236 232 232 232 234 237 238 238 240 244 248 253 258 264 273 282 291 302 307 308 309 314 315 310
218 211 206 198 197 209 214 208 205 206 211 219 225 228 238 244 243 247 257 264 273 278 273 275 285 293 292 284 274 267 259 248 243 245 245 243 242 244 245 238 230 230 235 237 237 238 238 240 246 249 252 258 267 278 288 298 305 307 307 309 311 311 308
215 189 192 200 207 223 231 220 215 218 221 224 229 235 240 242 238 243 258 269 278 285 285 283 286 289 289 282 271 262 256 250 246 245 244 243 243 244 244 238 226 225 232 236 235 234 235 239 244 246 250 261 273 283 294 304 308 308 308 308 309 308 306
219 192 199 215 226 237 241 221 210 214 220 224 230 238 238 237 240 252 267 276 282 289 288 281 280 286 290 284 272 260 254 250 247 246 244 243 244 244 243 237 225 220 225 230 229 228 232 238 241 243 253 270 280 290 302 310 311 309 308 307 307 306 305
213 205 211 226 240 231 214 202 202 212 218 216 223 234 237 237 244 257 272 278 281 283 280 278 281 282 281 278 271 262 256 251 246 245 243 241 241 241 241 237 227 218 217 222 226 228 234 238 238 245 263 275 283 296 310 315 314 310 307 305 305 305 305
219 222 225 232 239 223 209 210 224 236 230 218 226 244 248 244 245 259 272 276 275 271 272 282 286 273 270 275 270 259 254 252 245 237 235 237 239 240 238 232 219 208 209 216 223 229 234 236 241 255 269 277 288 305 316 317 313 309 306 304 304 303 303
227 234 237 237 241 246 244 240 240 242 233 221 228 249 259 255 252 261 269 270 269 266 270 283 283 262 266 273 260 249 255 259 246 229 225 227 231 236 234 221 206 201 206 214 223 230 234 239 252 264 271 282 298 312 317 315 308 305 304 302 302 300 301
226 233 239 239 244 252 247 230 223 220 215 215 234 258 266 259 248 251 260 266 267 263 265 278 275 252 265 273 252 246 264 270 242 219 213 207 207 220 223 216 210 211 213 218 226 233 238 247 260 269 279 294 305 311 315 312 306 303 301 298 297 298 300
228 233 242 245 250 256 241 210 211 212 209 219 249 262 263 255 236 244 260 273 272 263 261 273 273 251 255 263 251 249 262 256 216 198 195 194 195 202 207 211 215 217 219 223 227 233 245 256 266 279 291 299 303 308 309 305 302 300 297 293 291 294 299
230 231 241 246 247 247 229 210 213 218 224 240 256 259 258 255 254 260 269 278 278 266 259 264 266 253 248 249 245 245 248 232 205 195 195 201 202 195 198 207 214 216 221 225 230 242 255 265 276 287 293 295 299 301 297 293 293 293 291 289 289 291 295
234 232 238 245 245 239 231 225 227 235 244 252 261 266 263 252 248 262 276 280 277 268 263 263 258 250 247 242 234 233 231 216 203 201 201 201 197 194 199 207 211 217 223 230 240 253 262 271 281 286 287 288 291 291 287 285 288 288 285 285 286 287 289
235 234 236 242 243 233 231 233 237 243 248 251 256 263 262 252 252 267 278 277 269 260 262 263 253 244 243 235 222 222 221 214 209 206 199 195 197 200 206 212 216 224 233 242 252 261 266 274 281 283 283 285 286 287 288 286 284 284 283 281 282 284 288
234 238 239 238 235 223 215 215 219 229 236 239 241 247 256 261 267 274 273 266 256 250 252 256 250 242 238 232 222 219 220 218 213 204 196 198 203 207 214 222 229 236 244 252 260 265 270 278 281 279 279 284 286 288 290 286 277 277 278 279 281 284 288
233 238 234 222 223 221 209 206 217 230 242 251 254 258 265 270 275 276 266 252 246 242 239 242 243 239 236 231 223 217 215 212 207 202 199 202 206 214 223 230 237 245 251 256 262 269 275 280 281 277 277 281 283 285 285 281 274 273 274 278 282 285 286
232 234 232 226 228 234 240 247 255 258 261 266 269 270 274 274 273 267 255 246 246 243 237 234 233 231 230 229 222 217 213 208 204 202 203 207 215 225 235 240 244 249 255 261 267 272 275 275 274 272 271 275 279 280 279 277 275 273 273 277 281 283 283
245 246 250 249 249 254 259 261 265 265 265 269 272 272 272 269 263 256 249 246 248 246 240 234 228 226 227 228 224 219 214 209 206 204 205 214 223 230 237 243 248 252 258 264 268 269 269 269 269 268 269 274 278 279 278 276 273 272 274 276 278 280 281
249 247 251 253 252 255 258 257 260 264 266 270 272 269 267 263 256 251 249 249 250 249 241 230 223 223 227 227 224 221 215 210 210 214 219 226 231 235 239 243 248 253 258 263 266 267 268 269 270 270 272 277 280 281 279 275 272 272 273 274 276 279 278
242 240 246 249 245 241 250 257 262 264 265 267 265 262 261 257 252 248 248 246 244 242 235 225 220 221 223 221 218 217 217 218 220 226 232 235 237 242 245 246 250 257 262 266 268 269 270 271 272 273 275 278 280 281 278 274 272 273 274 274 276 277 277
241 240 243 244 235 228 237 247 253 254 255 256 255 253 253 250 244 240 243 242 238 232 225 220 217 216 216 216 213 212 219 227 232 234 237 243 247 249 250 253 259 266 269 271 272 272 272 273 274 275 277 277 277 276 275 273 272 272 273 275 277 277 279
229 233 239 241 236 232 234 239 242 244 245 245 243 242 244 244 237 228 231 239 240 234 225 221 221 220 218 218 215 216 225 235 240 245 254 260 258 255 256 262 268 273 275 276 277 276 276 276 275 275 275 275 274 273 272 271 270 270 272 274 277 279 282
230 233 240 244 244 241 240 240 243 244 245 246 242 235 233 234 228 218 224 236 245 246 240 232 230 228 224 221 218 219 228 239 248 257 266 266 262 260 263 268 272 276 279 281 281 280 278 276 275 274 274 273 272 270 269 268 268 270 272 274 277 280 283
242 243 245 249 251 251 246 241 241 243 244 244 241 234 230 228 221 215 222 235 247 253 251 242 236 233 232 230 230 232 241 251 260 265 266 264 264 265 267 271 276 280 282 281 281 280 277 275 273 273 272 271 271 270 269 269 269 271 273 275 277 280 282
Height
3177 3179 3180 3182 3183 3183 3185 3186 3187 3186 3186 3187 3188 3187 3188 3190 3187 3184 3185 3186 3185 3185 3184 3184 3186 3186 3186 3186 3186 3187 3187 3187 3188 3188 3189 3190 3191 3193 3194 3196 3197 3199 3200 3201 3202 3202 3203 3203 3203 3203 3203 3203 3203 3202 3201 3200 3199 3197 3195 3193 3190 3188 3185
3174 3176 3178 3180 3181 3182 3184 3184 3184 3185 3187 3188 3188 3186 3186 3187 3184 3180 3182 3184 3182 3182 3181 3182 3184 3185 3184 3185 3184 3184 3184 3184 3185 3185 3186 3187 3188 3189 3191 3193 3195 3196 3198 3199 3200 3200 3200 3200 3201 3201 3201 3201 3201 3200 3199 3199 3197 3196 3194 3192 3189 3186 3183
3172 3174 3176 3178 3179 3180 3182 3182 3181 3183 3184 3184 3186 3186 3183 3182 3179 3176 3178 3181 3180 3180 3180 3180 3182 3183 3183 3183 3182 3182 3182 3182 3182 3183 3183 3184 3185 3186 3189 3191 3192 3193 3195 3196 3197 3198 3198 3198 3199 3199 3199 3199 3199 3198 3197 3197 3196 3194 3192 3190 3187 3185 3182
3170 3173 3174 3175 3176 3178 3180 3180 3181 3182 3181 3180 3182 3183 3181 3180 3178 3175 3175 3177 3176 3176 3178 3180 3181 3181 3181 3181 3180 3180 3180 3180 3180 3180 3181 3182 3183 3184 3186 3188 3189 3191 3193 3194 3195 3196 3196 3196 3196 3196 3196 3197 3196 3196 3196 3195 3194 3192 3191 3189 3186 3183 3180
3168 3170 3170 3172 3173 3175 3177 3178 3179 3180 3180 3180 3180 3180 3180 3180 3178 3176 3176 3175 3172 3173 3177 3179 3179 3179 3179 3179 3179 3179 3178 3178 3178 3178 3179 3180 3181 3182 3184 3185 3187 3189 3190 3192 3193 3193 3193 3194 3194 3194 3194 3194 3194 3194 3194 3193 3192 3190 3189 3187 3184 3182 3179
3166 3167 3168 3169 3170 3172 3174 3175 3175 3176 3178 3179 3178 3176 3177 3179 3178 3177 3177 3175 3173 3173 3176 3177 3177 3178 3178 3178 3178 3177 3177 3177 3177 3177 3177 3178 3180 3181 3182 3183 3185 3186 3188 3189 3190 3191 3191 3191 3191 3191 3192 3192 3192 3192 3191 3190 3189 3188 3187 3185 3183 3180 3178
3163 3164 3165 3167 3168 3170 3172 3172 3172 3173 3174 3176 3175 3173 3174 3177 3178 3177 3178 3176 3173 3173 3174 3175 3175 3176 3176 3176 3176 3176 3176 3176 3176 3176 3176 3177 3178 3180 3181 3182 3182 3183 3185 3186 3187 3188 3188 3189 3189 3189 3189 3190 3190 3190 3189 3188 3187 3187 3184 3182 3180 3178 3176
3162 3162 3164 3166 3166 3168 3169 3169 3170 3171 3171 3172 3172 3171 3173 3175 3175 3176 3176 3173 3171 3170 3172 3173 3173 3174 3174 3174 3174 3174 3174 3175 3175 3175 3175 3175 3176 3177 3178 3180 3180 3181 3182 3183 3184 3185 3185 3186 3186 3187 3187 3188 3188 3188 3187 3186 3185 3185 3183 3181 3179 3177 3174
3160 3161 3162 3163 3164 3165 3166 3167 3168 3169 3169 3170 3170 3171 3172 3172 3172 3173 3173 3170 3169 3169 3170 3171 3171 3172 3173 3173 3173 3173 3173 3173 3173 3173 3173 3174 3174 3175 3176 3177 3177 3178 3179 3180 3181 3182 3183 3183 3184 3184 3185 3185 3185 3185 3184 3184 3183 3182 3181 3179 3177 3175 3173
3154 3155 3156 3158 3160 3162 3164 3164 3165 3166 3167 3168 3169 3169 3171 3170 3170 3172 3172 3169 3169 3169 3169 3170 3171 3171 3172 3172 3173 3172 3172 3172 3172 3171 3171 3171 3172 3173 3173 3174 3175 3176 3176 3177 3178 3179 3180 3181 3182 3182 3182 3183 3183 3182 3182 3182 3181 3180 3178 3177 3175 3173 3171
3149 3151 3152 3154 3157 3159 3159 3160 3161 3162 3164 3166 3166 3167 3168 3168 3168 3169 3169 3169 3169 3169 3169 3170 3171 3171 3171 3171 3171 3171 3170 3170 3170 3170 3170 3169 3169 3170 3170 3171 3172 3173 3173 3174 3175 3176 3177 3178 3179 3179 3180 3180 3180 3180 3180 3179 3179 3178 3176 3174 3173 3171 3169
3148 3149 3150 3153 3154 3155 3156 3157 3158 3159 3161 3162 3164 3164 3164 3166 3166 3165 3166 3168 3168 3167 3168 3169 3169 3169 3169 3169 3169 3169 3168 3168 3168 3168 3168 3167 3167 3167 3167 3168 3169 3169 3170 3172 3172 3173 3174 3175 3176 3177 3177 3177 3177 3178 3177 3177 3177 3175 3174 3172 3170 3168 3166
3147 3148 3149 3150 3152 3152 3153 3155 3156 3157 3157 3159 3160 3161 3162 3164 3164 3163 3164 3165 3165 3165 3165 3167 3167 3166 3166 3166 3166 3165 3165 3165 3165 3165 3164 3164 3164 3165 3165 3165 3166 3167 3168 3169 3169 3170 3172 3173 3174 3174 3174 3175 3175 3175 3175 3175 3174 3173 3171 3169 3168 3166 3164
3144 3145 3146 3147 3149 3150 3151 3152 3153 3154 3155 3156 3157 3158 3160 3161 3162 3162 3162 3163 3162 3162 3162 3163 3162 3162 3161 3161 3161 3161 3161 3161 3161 3161 3161 3161 3161 3162 3162 3163 3163 3164 3165 3166 3167 3168 3169 3170 3171 3172 3172 3173 3173 3173 3173 3172 3172 3170 3168 3167 3165 3163 3161
3142 3142 3143 3145 3146 3147 3148 3149 3150 3152 3153 3154 3155 3156 3157 3158 3158 3159 3160 3160 3159 3160 3160 3159 3158 3157 3157 3157 3157 3157 3157 3157 3157 3157 3157 3158 3158 3158 3159 3160 3161 3161 3162 3163 3164 3165 3166 3168 3169 3169 3170 3170 3171 3171 3170 3170 3169 3167 3165 3164 3162 3160 3159
3140 3141 3142 3143 3144 3146 3146 3146 3147 3149 3150 3151 3153 3153 3154 3155 3156 3157 3157 3157 3158 3158 3158 3156 3155 3154 3154 3153 3152 3152 3152 3152 3152 3152 3153 3154 3154 3155 3155 3156 3157 3158 3159 3160 3161 3162 3163 3165 3166 3167 3167 3168 3168 3168 3168 3167 3165 3164 3162 3160 3159 3158 3156
3137 3140 3141 3142 3144 3143 3142 3143 3145 3146 3148 3149 3150 3151 3152 3152 3154 3154 3154 3155 3155 3155 3154 3153 3152 3151 3150 3149 3148 3147 3147 3147 3148 3148 3149 3150 3150 3151 3152 3152 3154 3155 3156 3157 3158 3159 3161 3162 3163 3164 3165 3165 3166 3166 3165 3164 3162 3161 3159 3158 3156 3155 3153
3136 3138 3140 3142 3142 3139 3138 3140 3143 3144 3146 3147 3147 3148 3150 3151 3151 3151 3152 3152 3152 3151 3150 3150 3149 3147 3146 3145 3143 3143 3143 3144 3145 3145 3146 3147 3147 3147 3148 3148 3150 3151 3153 3154 3155 3156 3158 3160 3161 3161 3162 3163 3163 3162 3161 3160 3159 3157 3156 3155 3153 3152 3151
3136 3137 3139 3139 3137 3135 3136 3139 3140 3141 3143 3144 3145 3146 3148 3149 3149 3149 3149 3149 3149 3148 3147 3147 3145 3144 3143 3142 3141 3140 3141 3141 3142 3142 3143 3143 3144 3144 3144 3145 3146 3147 3149 3151 3152 3154 3155 3156 3157 3159 3160 3160 3160 3159 3158 3157 3156 3154 3153 3152 3150 3149 3148
3134 3135 3136 3136 3134 3134 3136 3137 3137 3139 3140 3141 3142 3144 3145 3146 3147 3146 3146 3146 3146 3145 3145 3144 3143 3141 3141 3140 3139 3139 3139 3139 3140 3140 3140 3140 3141 3141 3141 3142 3142 3144 3146 3148 3150 3151 3152 3153 3155 3156 3157 3157 3157 3156 3155 3154 3153 3151 3150 3149 3148 3146 3145
3131 3131 3131 3133 3134 3134 3135 3135 3136 3137 3138 3139 3140 3141 3142 3144 3144 3144 3144 3143 3143 3143 3142 3141 3140 3139 3139 3138 3138 3137 3137 3138 3138 3138 3138 3138 3138 3139 3139 3139 3141 3142 3144 3146 3147 3149 3150 3151 3153 3154 3154 3154 3154 3153 3152 3151 3150 3148 3147 3146 3145 3144 3143
3129 3128 3129 3131 3131 3130 3132 3135 3135 3136 3137 3138 3138 3139 3140 3141 3141 3141 3141 3141 3140 3140 3140 3139 3138 3137 3137 3137 3136 3136 3136 3136 3136 3136 3136 3136 3137 3137 3137 3138 3139 3140 3142 3144 3145 3146 3148 3149 3150 3151 3151 3151 3150 3150 3149 3148 3147 3145 3145 3144 3143 3141 3140
3126 3126 3126 3127 3126 3126 3130 3132 3133 3134 3135 3135 3136 3136 3136 3137 3138 3138 3138 3138 3138 3138 3138 3136 3136 3136 3136 3135 3134 3134 3135 3135 3135 3135 3135 3135 3136 3136 3136 3137 3138 3139 3141 3142 3143 3144 3146 3147 3148 3148 3147 3147 3147 3146 3146 3145 3144 3143 3142 3141 3140 3138 3137
3124 3124 3123 3123 3124 3126 3127 3129 3130 3131 3132 3133 3135 3134 3133 3135 3136 3135 3136 3136 3136 3136 3136 3134 3134 3134 3134 3133 3132 3132 3133 3134 3134 3134 3134 3134 3134 3135 3136 3137 3137 3138 3139 3140 3141 3143 3144 3145 3144 3144 3144 3143 3143 3143 3142 3142 3140 3139 3138 3137 3136 3135 3134
3120 3122 3121 3121 3123 3124 3125 3127 3128 3128 3130 3132 3132 3130 3131 3133 3134 3133 3133 3135 3135 3134 3133 3132 3132 3132 3131 3131 3131 3131 3131 3132 3132 3132 3132 3133 3133 3134 3134 3135 3136 3136 3137 3139 3140 3141 3142 3141 3141 3141 3140 3140 3139 3139 3138 3137 3136 3135 3134 3133 3132 3131 3130
3117 3118 3118 3119 3120 3121 3123 3125 3125 3125 3127 3129 3128 3127 3129 3131 3131 3130 3131 3132 3133 3132 3131 3130 3130 3130 3129 3129 3129 3129 3129 3129 3130 3130 3130 3131 3131 3132 3132 3133 3134 3135 3136 3137 3138 3138 3138 3138 3138 3138 3137 3136 3136 3135 3134 3133 3132 3132 3131 3129 3128 3127 3126
3114 3115 3116 3117 3118 3118 3120 3123 3123 3123 3124 3125 3125 3125 3126 3127 3127 3128 3128 3128 3129 3129 3128 3128 3128 3127 3127 3127 3127 3127 3127 3127 3127 3128 3128 3129 3129 3130 3130 3131 3132 3133 3134 3135 3135 3135 3135 3135 3135 3135 3134 3133 3132 3131 3131 3130 3129 3128 3127 3125 3123 3122 3122
3113 3114 3114 3115 3115 3116 3118 3120 3120 3120 3121 3121 3122 3123 3123 3123 3124 3124 3124 3124 3125 3125 3125 3125 3125 3124 3124 3124 3124 3124 3124 3124 3125 3125 3126 3126 3127 3128 3128 3129 3130 3131 3131 3132 3132 3132 3132 3132 3132 3132 3131 3131 3129 3128 3127 3127 3126 3124 3123 3121 3119 3119 3119
3112 3113 3113 3113 3114 3115 3116 3117 3118 3118 3118 3119 3119 3120 3120 3120 3121 3121 3120 3120 3120 3121 3121 3121 3121 3121 3121 3121 3122 3122 3121 3122 3122 3122 3123 3124 3125 3125 3126 3127 3127 3128 3129 3129 3129 3129 3129 3129 3129 3129 3128 3127 3126 3125 3124 3124 3123 3121 3119 3118 3116 3116 3115
3110 3111 3111 3111 3112 3113 3114 3115 3115 3115 3116 3116 3116 3116 3116 3117 3117 3117 3116 3116 3116 3117 3117 3117 3118 3118 3119 3119 3119 3119 3119 3119 3120 3120 3121 3121 3122 3123 3123 3124 3125 3125 3126 3126 3126 3126 3126 3126 3126 3125 3124 3123 3122 3122 3120 3119 3118 3117 3115 3114 3114 3113 3112
3108 3109 3109 3109 3111 3111 3112 3112 3111 3112 3113 3113 3113 3113 3113 3113 3114 3113 3113 3113 3113 3114 3114 3114 3115 3115 3116 3116 3117 3117 3117 3118 3118 3118 3119 3119 3120 3120 3120 3121 3122 3122 3123 3123 3123 3123 3122 3122 3122 3121 3120 3119 3119 3117 3115 3114 3113 3112 3111 3110 3110 3109 3108
3107 3107 3106 3106 3108 3109 3109 3109 3108 3108 3109 3110 3110 3111 3110 3110 3110 3110 3110 3110 3110 3111 3111 3112 3112 3113 3113 3114 3114 3115 3115 3116 3116 3117 3117 3117 3118 3118 3118 3118 3119 3119 3120 3119 3119 3119 3118 3118 3118 3117 3116 3115 3114 3112 3111 3109 3108 3107 3107 3107 3106 3104 3103
3105 3105 3103 3103 3106 3107 3106 3105 3105 3106 3106 3107 3108 3108 3108 3108 3108 3107 3108 3108 3108 3108 3109 3109 3110 3110 3111 3111 3112 3112 3113 3114 3114 3114 3115 3115 3115 3115 3115 3115 3115 3116 3116 3116 3115 3115 3114 3114 3113 3112 3111 3110 3109 3107 3106 3105 3103 3103 3102 3102 3101 3100 3098
3103 3102 3099 3100 3103 3104 3103 3103 3103 3103 3104 3104 3105 3105 3105 3105 3105 3105 3105 3106 3106 3106 3107 3107 3107 3108 3108 3108 3109 3110 3110 3111 3111 3111 3112 3112 3113 3113 3113 3112 3112 3113 3113 3112 3112 3111 3110 3109 3108 3107 3106 3105 3104 3102 3101 3100 3099 3098 3098 3097 3097 3095 3094
3099 3097 3096 3097 3099 3100 3101 3101 3101 3101 3101 3102 3102 3102 3102 3102 3102 3103 3103 3104 3104 3104 3104 3105 3105 3105 3106 3106 3107 3107 3107 3107 3108 3108 3109 3109 3110 3110 3109 3109 3109 3109 3109 3108 3107 3106 3105 3104 3103 3102 3100 3100 3099 3098 3097 3096 3095 3094 3094 3093 3093 3092 3090
3095 3094 3094 3094 3095 3097 3098 3099 3099 3098 3098 3099 3099 3099 3099 3099 3099 3100 3100 3101 3102 3102 3102 3102 3102 3103 3103 3104 3104 3104 3104 3105 3105 3105 3106 3106 3106 3106 3106 3106 3105 3105 3104 3103 3102 3101 3100 3099 3098 3097 3096 3095 3094 3093 3092 3092 3091 3090 3090 3089 3089 3088 3086
3091 3092 3092 3092 3092 3093 3095 3096 3096 3095 3095 3096 3096 3097 3097 3097 3097 3097 3097 3098 3098 3099 3099 3099 3099 3100 3101 3101 3101 3102 3102 3102 3102 3103 3103 3103 3103 3103 3102 3102 3101 3101 3100 3099 3098 3096 3095 3094 3093 3092 3091 3090 3090 3089 3088 3087 3087 3086 3086 3085 3085 3084 3083